TimeCDT,TemperatureF,Dew PointF,Humidity,Sea Level PressureIn,VisibilityMPH,Wind Direction,Wind SpeedMPH,Gust SpeedMPH,PrecipitationIn,Events,Conditions,WindDirDegrees,DateUTC
12:53 AM,82.0,77.0,85,29.89,8.0,South,11.5,-,N/A,,Partly Cloudy,170,2013-07-28 05:53:00
1:53 AM,82.0,77.0,85,29.88,8.0,South,11.5,-,N/A,,Clear,170,2013-07-28 06:53:00
2:53 AM,81.0,77.0,88,29.89,8.0,South,5.8,-,N/A,,Mostly Cloudy,190,2013-07-28 07:53:00
3:50 AM,80.6,75.2,84,29.88,8.0,South,8.1,-,N/A,,Scattered Clouds,170,2013-07-28 08:50:00
3:53 AM,80.1,75.9,87,29.88,8.0,South,8.1,-,N/A,,Scattered Clouds,170,2013-07-28 08:53:00
4:53 AM,80.1,75.9,87,29.87,7.0,South,6.9,-,N/A,,Clear,170,2013-07-28 09:53:00
5:53 AM,79.0,75.9,90,29.87,7.0,South,6.9,-,N/A,,Clear,180,2013-07-28 10:53:00
6:53 AM,79.0,75.9,90,29.89,6.0,SSE,9.2,-,N/A,,Clear,160,2013-07-28 11:53:00
7:53 AM,80.1,75.9,87,29.91,6.0,SSE,8.1,-,N/A,,Partly Cloudy,160,2013-07-28 12:53:00
8:53 AM,82.9,75.9,79,29.92,6.0,South,13.8,-,N/A,,Haze,170,2013-07-28 13:53:00
9:53 AM,87.1,73.9,65,29.92,7.0,South,17.3,24.2,N/A,,Scattered Clouds,180,2013-07-28 14:53:00
10:53 AM,89.1,73.0,59,29.92,7.0,South,16.1,24.2,N/A,,Partly Cloudy,190,2013-07-28 15:53:00
11:53 AM,91.9,73.0,54,29.92,7.0,South,12.7,27.6,N/A,,Scattered Clouds,180,2013-07-28 16:53:00
12:53 PM,93.0,72.0,50,29.92,6.0,SSE,17.3,32.2,N/A,,Haze,160,2013-07-28 17:53:00
1:53 PM,93.9,73.0,51,29.90,6.0,South,17.3,31.1,N/A,,Haze,170,2013-07-28 18:53:00
2:53 PM,93.0,73.9,54,29.90,6.0,SE,21.9,33.4,N/A,,Haze,140,2013-07-28 19:53:00
3:53 PM,93.0,73.9,54,29.88,7.0,SSE,18.4,29.9,N/A,,Partly Cloudy,160,2013-07-28 20:53:00
4:53 PM,91.9,73.9,55,29.87,7.0,SSE,25.3,32.2,N/A,,Scattered Clouds,160,2013-07-28 21:53:00
5:53 PM,91.0,75.0,59,29.87,7.0,SSE,20.7,29.9,N/A,,Scattered Clouds,160,2013-07-28 22:53:00
6:53 PM,88.0,75.9,67,29.87,7.0,SSE,25.3,31.1,N/A,,Scattered Clouds,150,2013-07-28 23:53:00
7:07 PM,87.8,75.2,66,29.87,7.0,SSE,20.7,-,N/A,,Mostly Cloudy,160,2013-07-29 00:07:00
7:24 PM,87.8,75.2,66,29.88,7.0,SSE,20.7,27.6,N/A,,Scattered Clouds,160,2013-07-29 00:24:00
7:53 PM,86.0,75.9,72,29.89,8.0,SSE,24.2,29.9,N/A,,Partly Cloudy,160,2013-07-29 00:53:00
8:53 PM,84.0,77.0,79,29.89,9.0,SSE,18.4,26.5,N/A,,Clear,160,2013-07-29 01:53:00
9:53 PM,82.9,77.0,82,29.91,9.0,SSE,17.3,24.2,N/A,,Clear,160,2013-07-29 02:53:00
10:53 PM,82.9,77.0,82,29.93,8.0,SSE,17.3,25.3,N/A,,Clear,160,2013-07-29 03:53:00
11:53 PM,82.0,77.0,85,29.94,8.0,SSE,15.0,-,N/A,,Clear,160,2013-07-29 04:53:00